Location: Firdgum
(53.2488°N, 5.5615°E)
Time: 02:52:00
(UTC+00:00)

Meteor 1-25 Rocket - Pass Details

Date: 08 December 2019
Orbit: 838 x 890 km, 81.2° (Epoch: 19 January)

Event Time Altitude Azimuth Distance (km) Brightness Sun altitude
Rises 05:59:05 0° 210° (SSW) 3,396 7.2 -13.8°
Reaches altitude 10° 06:01:34 10° 216° (SW) 2,471 6.5 -13.4°
Maximum altitude 06:06:59 49° 291° (WNW) 1,095 4.4 -12.6°
Drops below altitude 10° 06:12:32 10° 6° (N) 2,520 6.5 -11.9°
Sets 06:15:06 0° 12° (NNE) 3,470 7.3 -11.5°
